Weather History for San Jose, Costa Rica

Change the Weather History Date:

Friday, November 29, 2013

  Actual Average Record
Temperature  
Mean Temperature 73 °F -  
Max Temperature 79 °F 79 °F 84 °F (2000)
Min Temperature 67 °F 64 °F 59 °F (2005)
Cooling Degree Days 8    
Growing Degree Days 23 (Base 50)    
Moisture  
Dew Point 59 °F    
Average Humidity 61    
Maximum Humidity 78    
Minimum Humidity 39    
Precipitation  
Precipitation 0.00 in 0.05 in - ()
Sea Level Pressure  
Sea Level Pressure 29.97 in    
Wind  
Wind Speed 10 mph ()    
Max Wind Speed 18 mph    
Max Gust Speed 31 mph    
Visibility 8.1 miles    
Events Rain    
Averages and records for this station are not official NWS values.
T = Trace of Precipitation, MM = Missing Value Source: Averaged Metar Reports

Daily Weather History Graph

Daily Weather History Graph

Search for Another Location

Airport:

Trip Planner

Search our weather history database for the weather conditions in past years. The results will help you decide how hot, cold, wet, or windy it might be!

Date:

Astronomy

Nov. 29, 2013 Rise Set
Actual Time 5:37 AM CST 5:13 PM CST
Civil Twilight 5:14 AM CST 5:35 PM CST
Nautical Twilight 4:48 AM CST 6:01 PM CST
Astronomical Twilight 4:23 AM CST 6:27 PM CST
Moon 2:17 AM CST (11/29) 2:26 PM CST (11/29)
Length of Visible Light 12h 20m
Length of Day
11h 35m
Waning Crescent, 14% of the Moon is Illuminated
Nov 29
Waning Crescent
Dec 2
New
Dec 9
First Quarter
Dec 17
Full
Dec 25
Last Quarter

Hourly Weather History & Observations

Time (CST) Temp. Dew Point Humidity Pressure Visibility Wind Dir Wind Speed Gust Speed Precip Events Conditions
12:00 AM 69 °F 59 °F 64% 29.87 in 12 mi East 9.2 mph - -   Clear
12:00 AM 69.8 °F 59.0 °F 68% 29.99 in - East 9.2 mph - N/A   Clear
1:00 AM 68.0 °F 59.0 °F 73% 29.96 in - East 13.8 mph - N/A   Clear
2:00 AM 68.0 °F 59.0 °F 73% 29.96 in - East 11.5 mph - N/A   Clear
3:00 AM 68 °F 61 °F 71% 29.82 in 12 mi East 11.5 mph - - Rain Light Rain
3:00 AM 68.0 °F 60.8 °F 78% 29.94 in - East 11.5 mph - N/A   Clear
4:00 AM 68.0 °F 59.0 °F 73% 29.95 in - ESE 12.7 mph - N/A   Clear
5:00 AM 69.8 °F 57.2 °F 64% 29.98 in - East 11.5 mph - N/A   Clear
6:00 AM 68 °F 59 °F 64% 29.89 in 12 mi East 11.5 mph - -   Scattered Clouds
6:00 AM 68.0 °F 59.0 °F 73% 30.00 in 6.2 mi East 11.5 mph - N/A   Mostly Cloudy
7:00 AM 73.4 °F 57.2 °F 57% 30.02 in 6.2 mi ENE 18.4 mph 31.1 mph N/A   Mostly Cloudy
8:00 AM 75.2 °F 57.2 °F 53% 30.05 in - East 10.4 mph - N/A   Mostly Cloudy
9:00 AM 76 °F 58 °F 43% 29.92 in 12 mi ENE 12.7 mph - -   Scattered Clouds
9:00 AM 77.0 °F 57.2 °F 50% 30.06 in 6.2 mi ENE 12.7 mph - N/A   Mostly Cloudy
10:00 AM 77.0 °F 57.2 °F 50% 30.05 in 6.2 mi ENE 11.5 mph 23.0 mph N/A   Mostly Cloudy
11:00 AM 78.8 °F 57.2 °F 47% 30.03 in 6.2 mi ENE 15.0 mph 26.5 mph N/A   Mostly Cloudy
12:00 PM 78 °F 60 °F 43% 29.86 in 12 mi East 11.5 mph - -   Scattered Clouds
12:00 PM 77.0 °F 59.0 °F 54% 30.00 in 6.2 mi East 11.5 mph 23.0 mph N/A   Mostly Cloudy
1:00 PM 78.8 °F 60.8 °F 54% 29.98 in 6.2 mi ENE 13.8 mph - N/A   Mostly Cloudy
2:00 PM 77.0 °F 59.0 °F 54% 29.96 in 6.2 mi ENE 16.1 mph 28.8 mph N/A   Mostly Cloudy
3:00 PM 78 °F 57 °F 39% 29.82 in 12 mi East 9.2 mph - -   Partly Cloudy
3:00 PM 77.0 °F 57.2 °F 50% 29.96 in 6.2 mi East 9.2 mph - N/A   Mostly Cloudy
4:00 PM 77.0 °F 59.0 °F 54% 29.96 in 6.2 mi East 6.9 mph - N/A   Mostly Cloudy
5:00 PM 73.4 °F 60.8 °F 65% 29.98 in 6.2 mi ESE 2.3 mph - N/A   Mostly Cloudy
6:00 PM 70 °F 60 °F 62% 29.88 in 12 mi ESE 3.5 mph - -   Scattered Clouds
6:00 PM 69.8 °F 60.8 °F 73% 30.00 in 6.2 mi ESE 3.5 mph - N/A   Scattered Clouds
7:00 PM 71.6 °F 59.0 °F 64% 30.02 in 6.2 mi East 8.1 mph - N/A   Scattered Clouds
8:00 PM 69.8 °F 60.8 °F 73% 30.03 in 6.2 mi East 10.4 mph - N/A   Scattered Clouds
9:00 PM 70 °F 60 °F 63% 29.90 in 12 mi East 10.4 mph - -   Partly Cloudy
9:00 PM 69.8 °F 60.8 °F 73% 30.04 in 6.2 mi East 10.4 mph - N/A   Scattered Clouds
10:00 PM 69.8 °F 60.8 °F 73% 30.04 in 6.2 mi East 12.7 mph - N/A   Scattered Clouds
11:00 PM 69.8 °F 60.8 °F 73% 30.03 in 6.2 mi East 12.7 mph - N/A   Scattered Clouds